Terminal Aerodrome Forecast
Issued by NWS Kansas City/Pleasant Hill, MO

Home | Current Version | Previous Version | Text Only | Print | Product List | Glossary On
Versions: 1 2 3 4 5 6 7 8 9 10 11 12 13 14 15 16 17
000
FTUS43 KEAX 260100 AAA
TAFMCI
TAF AMD
KMCI 260125Z 2601/2624 35009KT P6SM BKN025
     FM260700 22006KT P6SM BKN035
     FM261200 24012KT P6SM SCT250
     FM261800 30015G22KT P6SM SKC=

USA.gov is the U.S. government's official web portal to all federal, state and local government web resources and services.